Location: downtown San Diego
(32.7310°N, 117.1990°W)
Time: 08:26:47
(UTC-08:00)

Cosmos 1610 Rocket - Pass Details

Date: 19 May 2017
Orbit: 952 x 1004 km, 82.9° (Epoch: 22 November)

Event Time Altitude Azimuth Distance (km) Brightness Sun altitude
Rises 21:59:24 0° 357° (N) 3,707 8.3 -24.0°
Reaches altitude 10° 22:01:59 10° 360° (N) 2,748 7.5 -24.4°
Maximum altitude 22:08:15 68° 83° (E) 1,045 4.4 -25.3°
Enters shadow 22:09:11 60° 130° (SE) 1,110 4.4 -25.4°
